UAE8VR VRMM-WSSS

Flight info

Callsign UAE8VR
Flight time N/A
Altitude 33000
Route TENIV1A TENIV P756 OBDAL/N0496F350 P756 OKABU M300 SALAX Y340 BATAR A464 ARAMA ARAMA1A
Aircraft B77W/H-SDE1E2E3FGHIJ2J3J4J5M1RWXY/LB1D1

Departure

Time 2026-05-01 15:20
Airport Velana International Airport (VRMM)

Arrival

Time N/A
Airport Singapore Changi Airport (WSSS)
Time Latitude Longitude Altitude Speed Heading
2026-05-01 14:41 4.18213 73.52772 17 ft 0 kts 269°
2026-05-01 15:12 4.18213 73.52773 17 ft 1 kts 269°
2026-05-01 15:13 4.18213 73.52834 17 ft 2 kts 269°
2026-05-01 15:14 4.18231 73.52862 22 ft 3 kts 184°
2026-05-01 15:14 4.18252 73.52862 21 ft 3 kts 178°
2026-05-01 15:14 4.18255 73.52861 20 ft 0 kts 179°
2026-05-01 15:17 4.18213 73.52862 18 ft 7 kts 179°
2026-05-01 15:18 4.18117 73.52924 17 ft 8 kts 52°
2026-05-01 15:18 4.18175 73.52935 17 ft 7 kts 356°
2026-05-01 15:19 4.18197 73.53058 17 ft 10 kts 90°
2026-05-01 15:19 4.18248 73.53105 17 ft 6 kts 357°
2026-05-01 15:19 4.18456 73.53102 17 ft 69 kts 360°
2026-05-01 15:20 4.20461 73.53092 156 ft 195 kts 356°
2026-05-01 15:20 4.21813 73.53074 910 ft 194 kts 357°
2026-05-01 15:20 4.23166 73.53071 1711 ft 194 kts 358°
2026-05-01 15:21 4.24539 73.53073 2201 ft 207 kts 359°
2026-05-01 15:21 4.26060 73.53078 2477 ft 228 kts 359°
2026-05-01 15:21 4.27703 73.53078 2991 ft 238 kts 358°
2026-05-01 15:21 4.29353 73.53081 3780 ft 237 kts 359°
2026-05-01 15:22 4.32753 73.53082 5034 ft 252 kts 359°
2026-05-01 15:22 4.34554 73.53083 5560 ft 266 kts 359°
2026-05-01 15:22 4.36437 73.53071 6136 ft 275 kts 359°
2026-05-01 15:23 4.38362 73.53078 6800 ft 277 kts
2026-05-01 15:23 4.40184 73.53691 7394 ft 280 kts 36°
2026-05-01 15:23 4.41504 73.55104 8132 ft 281 kts 60°
2026-05-01 15:23 4.42205 73.56934 8798 ft 285 kts 82°
2026-05-01 15:24 4.42255 73.58918 9401 ft 288 kts 91°
2026-05-01 15:24 4.42226 73.60936 10067 ft 291 kts 90°
2026-05-01 15:24 4.42212 73.63003 10547 ft 305 kts 90°
2026-05-01 15:24 4.42203 73.65217 10722 ft 330 kts 90°
2026-05-01 15:25 4.42197 73.67606 10910 ft 355 kts 90°
2026-05-01 15:25 4.42195 73.70145 11236 ft 372 kts 90°
2026-05-01 15:25 4.42195 73.72777 11838 ft 382 kts 90°
2026-05-01 15:25 4.42195 73.75415 12655 ft 386 kts 90°
2026-05-01 15:26 4.42081 73.78105 13464 ft 389 kts 95°
2026-05-01 15:26 4.41688 73.80803 14195 ft 394 kts 99°
2026-05-01 15:26 4.41176 73.83521 14904 ft 399 kts 101°
2026-05-01 15:26 4.40637 73.86259 15619 ft 403 kts 101°
2026-05-01 15:27 4.40102 73.89033 16321 ft 407 kts 100°
2026-05-01 15:27 4.39581 73.91838 17003 ft 412 kts 100°
2026-05-01 15:27 4.39070 73.94680 17708 ft 416 kts 99°
2026-05-01 15:28 4.38064 74.00453 18924 ft 425 kts 99°
2026-05-01 15:28 4.37560 74.03381 19517 ft 428 kts 100°
2026-05-01 15:28 4.37053 74.06333 20105 ft 432 kts 100°
2026-05-01 15:29 4.36025 74.12317 21242 ft 439 kts 100°
2026-05-01 15:29 4.35503 74.15347 21797 ft 443 kts 100°
2026-05-01 15:29 4.34446 74.21484 22894 ft 450 kts 100°
2026-05-01 15:30 4.33372 74.27718 23878 ft 457 kts 100°
2026-05-01 15:31 4.31185 74.40402 25692 ft 466 kts 100°
2026-05-01 15:31 4.30074 74.46844 26556 ft 472 kts 100°
2026-05-01 15:32 4.28950 74.53349 27346 ft 477 kts 100°
2026-05-01 15:32 4.27815 74.59927 28128 ft 481 kts 100°
2026-05-01 15:33 4.26091 74.69906 29174 ft 488 kts 100°
2026-05-01 15:34 4.24346 74.80002 30224 ft 490 kts 99°